Fort Benning, AL

1:47 AM CST on December 15, 2017 (GMT -0600)
Lawson Army Air Field

Weather History for KLSF - October, 2011

Change the Weather History Date:

Friday, October 7, 2011

  Actual Average Record
Temperature  
Mean Temperature 66 °F -  
Max Temperature 83 °F 77 °F 87 °F (2007)
Min Temperature 50 °F 55 °F 41 °F (2001)
Cooling Degree Days 2    
Growing Degree Days 16 (Base 50)    
Moisture  
Dew Point 52 °F    
Average Humidity 62    
Maximum Humidity 95    
Minimum Humidity 33    
Precipitation  
Precipitation 0.00 in - - ()
Sea Level Pressure  
Sea Level Pressure 30.26 in    
Wind  
Wind Speed 5 mph (NE)    
Max Wind Speed 9 mph    
Max Gust Speed 22 mph    
Visibility 10 miles    
Events      
Averages and records for this station are not official NWS values.
T = Trace of Precipitation, MM = Missing Value Source: NWS Daily Summary

Daily Weather History Graph

Daily Weather History Graph

Search for Another Location

Airport or City:

Trip Planner

Search our weather history database for the weather conditions in past years. The results will help you decide how hot, cold, wet, or windy it might be!

Date:

Astronomy

Oct. 07, 2011 Rise Set
Actual Time 7:37 AM EDT 7:17 PM EDT
Civil Twilight 7:13 AM EDT 7:41 PM EDT
Nautical Twilight 6:44 AM EDT 8:10 PM EDT
Astronomical Twilight 6:16 AM EDT 8:38 PM EDT
Moon 4:49 PM EDT (10/7) 3:38 AM EDT (10/7)
Length of Visible Light 12h 28m
Length of Day
11h 39m
Waxing Gibbous, 83% of the Moon is Illuminated
Oct 7
Waxing Gibbous
Oct 11
Full
Oct 19
Last Quarter
Oct 26
New
Nov 2
First Quarter

Hourly Weather History & Observations

Time (EDT) Temp. Dew Point Humidity Pressure Visibility Wind Dir Wind Speed Gust Speed Precip Events Conditions
12:55 AM 59.5 °F 51.3 °F 74% 30.25 in 10.0 mi ENE 4.6 mph - N/A   Clear
1:55 AM 56.1 °F 52.0 °F 86% 30.25 in 10.0 mi West 3.5 mph - N/A   Clear
2:55 AM 54.5 °F 51.4 °F 89% 30.25 in 10.0 mi WNW 3.5 mph - N/A   Clear
3:55 AM 55.4 °F 51.6 °F 87% 30.25 in 10.0 mi Calm Calm - N/A   Clear
4:55 AM 53.8 °F 50.7 °F 89% 30.25 in 10.0 mi West 3.5 mph - N/A   Clear
5:55 AM 50.5 °F 49.1 °F 95% 30.26 in 10.0 mi Calm Calm - N/A   Clear
6:55 AM 51.1 °F 49.8 °F 95% 30.27 in 10.0 mi WNW 3.5 mph - N/A   Clear
7:55 AM 51.6 °F 49.6 °F 93% 30.29 in 10.0 mi Calm Calm - N/A   Clear
8:55 AM 60.8 °F 52.2 °F 73% 30.31 in 10.0 mi Variable 5.8 mph - N/A   Clear
9:55 AM 66.6 °F 52.7 °F 61% 30.32 in 10.0 mi Variable 4.6 mph - N/A   Clear
10:55 AM 73.0 °F 52.9 °F 49% 30.32 in 10.0 mi ENE 8.1 mph 16.1 mph N/A   Clear
11:55 AM 76.1 °F 51.6 °F 42% 30.31 in 10.0 mi ENE 8.1 mph 21.9 mph N/A   Clear
12:55 PM 78.6 °F 50.5 °F 37% 30.30 in 10.0 mi ENE 9.2 mph - N/A   Clear
1:55 PM 81.1 °F 50.5 °F 34% 30.27 in 10.0 mi NE 9.2 mph - N/A   Clear
2:55 PM 82.0 °F 50.2 °F 33% 30.24 in 10.0 mi ENE 6.9 mph 17.3 mph N/A   Clear
4:55 PM 83.3 °F 51.3 °F 33% 30.22 in 10.0 mi East 8.1 mph - N/A   Clear
5:55 PM 82.2 °F 52.9 °F 36% 30.22 in 10.0 mi East 9.2 mph - N/A   Clear
6:55 PM 79.2 °F 54.0 °F 42% 30.22 in 10.0 mi ENE 5.8 mph - N/A   Clear
7:55 PM 74.8 °F 54.3 °F 49% 30.23 in 10.0 mi NE 4.6 mph - N/A   Clear
8:55 PM 73.0 °F 55.0 °F 53% 30.25 in 10.0 mi NE 6.9 mph - N/A   Clear
9:55 PM 71.8 °F 55.8 °F 57% 30.27 in 10.0 mi NE 6.9 mph - N/A   Clear
10:55 PM 71.2 °F 56.1 °F 59% 30.27 in 10.0 mi NE 6.9 mph - N/A   Partly Cloudy
11:55 PM 70.9 °F 56.5 °F 60% 30.27 in 10.0 mi ENE 6.9 mph - N/A   Scattered Clouds